Airfield :
LOGIN :

Register | Disclaimer

   EN    FR    IT 

 










Legend :    VFR   Marginal VFR   IFR   Intensive IFR   Very Intensive IFR
Visi :
Ceiling :
>= 8 km
>= 3000ft
5 to 8 km
1000 to 3000 ft
1500m to 5 km
500 to 1000 ft
800 to 1500m
200 to 500 ft
< 800m
< 200 ft
Symbols :   Thunderstorms  Fog  Heavy snow  Heavy precipitations  Wind > 20 kt
SIGMETs :     Misc.  Thunderstorms  Icing  Turbulence  Mountain Waves  Volcanic Ashes







- Airport Elevation : 46 ft
- IATA code : PAF


LPMT - Montijo Air Base

CURRENT METAR :
  • 171000Z 02007KT 0900 FG BKN004 09/09 Q1022

EXPIRED METARs :
  • 170900Z 05006KT 7000 0600W BCFG FEW010 08/08 Q1021
  • 170800Z 02005KT 2000 BR FEW010 06/06 Q1021

TAF AMD TAF LPMT
Valid from the 17 at 09:00 until the 18 at 06:00 UTC


170909Z 1709/1806 VRB02KT 0600 FG SCT008
BECMG 1709/1711 18005KT 9999 NSW SCT030
BECMG 1716/1718 VRB02KT BKN025
PROB40
TEMPO 1720/1724 4000 SHRA BKN014
BECMG 1723/1801 36012KT 6000 -RA SCT012 BKN018
TEMPO 1800/1806 1400 DZRA SCT004 BKN008
No reported NOTAMs for that airfield.



MET'MAP, your aeronautical weather chart ! - Copyright ORBIFLY December 2007 - Disclaimer

ORBIFLY MET'MAP TEAM :

Programming & Development : Alexandra Zaïnal
Concept & Development : Baudouin d'Aumeries
Co-Development & Prog : Marc-Olivier Méhu
Technical & hardware support : Manuel Goepfert

Contact : metmap@orbifly.com




SOURCES & CREDITS :

   NOAA